CW4482 Weather Reports


Display with metric or nautical units.
time (UTC)temp
F
wind
direction
speed
MPH
gust
MPH
rain 1hr
in
rain 24hr
in
rain mn
in
humidity
%
barometer
mb
20260901041514 82 360 0.0 0.0 0.00 0.00 0.00 83 1014.6
20260901040021 82 360 0.0 3.0 0.00 0.00 0.00 83 1014.7
20260901034544 82 360 0.0 2.0 0.00 0.00 0.00 82 1014.6
20260901033028 82 360 0.0 0.0 0.00 0.00 0.00 83 1014.6
20260901031517 82 360 0.0 1.0 0.00 0.00 0.00 83 1014.5
20260901030022 82 360 0.0 0.0 0.00 0.00 0.00 82 1014.3
20260901024526 82 360 0.0 0.0 0.00 0.00 0.00 82 1013.9
20260901023011 82 360 0.0 0.0 0.00 0.00 0.00 81 1013.5
20260901021539 82 360 0.0 0.0 0.00 0.00 0.00 80 1013.4
20260901020039 83 360 0.0 0.0 0.00 0.00 0.00 79 1013.5
20260901014527 83 360 0.0 0.0 0.00 0.00 0.00 79 1013.2
20260901013050 84 360 0.0 0.0 0.00 0.00 0.00 78 1013.1
20260901011514 85 360 0.0 0.0 0.00 0.00 0.00 77 1013.0
20260901010021 85 360 0.0 0.0 0.00 0.00 0.00 76 1013.1
20260901004545 86 360 0.0 4.0 0.00 0.00 0.00 74 1013.2
20260901003029 87 360 1.0 5.0 0.00 0.00 0.00 73 1013.3
20260901001514 87 360 1.0 4.0 0.00 0.00 0.00 73 1013.3
20260901000021 88 360 0.0 4.0 0.00 0.00 0.00 71 1013.2
20260831234545 88 360 2.0 5.0 0.00 0.00 0.00 70 1013.2
20260831233010 89 360 2.0 8.0 0.00 0.00 0.00 70 1013.2
20260831231515 89 360 1.0 5.0 0.00 0.00 0.00 69 1013.2
20260831230024 90 360 1.0 6.0 0.00 0.00 0.00 68 1013.3
20260831224546 90 360 2.0 8.0 0.00 0.00 0.00 67 1013.3
20260831223025 90 360 3.0 6.0 0.00 0.00 0.00 68 1013.3
20260831221515 90 360 3.0 6.0 0.00 0.00 0.00 65 1013.3
20260831220040 90 360 1.0 6.0 0.00 0.00 0.00 67 1013.4
20260831214527 90 360 1.0 6.0 0.00 0.00 0.00 70 1013.4
20260831213012 91 360 2.0 6.0 0.00 0.00 0.00 67 1013.8
20260831211520 91 360 3.0 9.0 0.00 0.00 0.00 63 1013.9
20260831210025 93 360 2.0 10.0 0.00 0.00 0.00 58 1014.1
20260831204535 94 360 6.0 10.0 0.00 0.00 0.00 62 1014.2
20260831203039 93 360 5.0 11.0 0.00 0.00 0.00 61 1014.3
20260831201543 93 360 2.0 5.0 0.00 0.00 0.00 63 1014.4
20260831200009 92 360 0.0 3.0 0.00 0.00 0.00 60 1014.6
20260831194533 92 360 2.0 4.0 0.00 0.00 0.00 68 1014.6
20260831193019 93 360 1.0 6.0 0.00 0.00 0.00 70 1015.0
20260831191522 94 360 1.0 4.0 0.00 0.00 0.00 60 1015.0
20260831190031 95 360 3.0 5.0 0.00 0.00 0.00 57 1015.2
20260831184535 97 360 2.0 5.0 0.00 0.00 0.00 55 1015.3
20260831183020 96 360 2.0 9.0 0.00 0.00 0.00 58 1015.3
20260831181524 96 360 1.0 5.0 0.00 0.00 0.00 55 1015.6
20260831180013 95 360 3.0 6.0 0.00 0.00 0.00 57 1015.8
20260831174538 95 360 0.0 5.0 0.00 0.00 0.00 56 1015.9
20260831173017 93 360 1.0 5.0 0.00 0.00 0.00 60 1016.2
20260831171525 92 360 1.0 5.0 0.00 0.00 0.00 63 1016.3
20260831170029 91 360 1.0 4.0 0.00 0.00 0.00 65 1016.4
20260831164517 90 360 2.0 5.0 0.00 0.00 0.00 64 1016.5
20260831163022 88 360 2.0 5.0 0.00 0.00 0.00 69 1016.5
20260831161547 87 360 1.0 6.0 0.00 0.00 0.00 76 1016.7
20260831160028 86 360 2.0 6.0 0.00 0.00 0.00 76 1016.6
20260831154515 85 360 1.0 2.0 0.00 0.00 0.00 75 1016.5
20260831153020 85 360 2.0 5.0 0.00 0.00 0.00 77 1016.6
20260831151547 84 360 1.0 4.0 0.00 0.00 0.00 80 1016.5
20260831150048 83 360 0.0 5.0 0.00 0.00 0.00 85 1016.4
20260831144511 82 360 0.0 3.0 0.00 0.00 0.00 86 1016.4
20260831143019 81 360 1.0 5.0 0.00 0.00 0.00 88 1016.4
20260831141522 80 360 2.0 4.0 0.00 0.00 0.00 89 1016.4
20260831140010 79 360 1.0 3.0 0.00 0.00 0.00 91 1016.3
20260831134514 78 360 0.0 0.0 0.00 0.00 0.00 91 1016.2
20260831133040 78 360 0.0 0.0 0.00 0.00 0.00 91 1016.0
20260831131523 77 360 0.0 2.0 0.00 0.00 0.00 91 1015.8
20260831130011 77 360 0.0 1.0 0.00 0.00 0.00 91 1015.5
20260831124516 76 360 0.0 0.0 0.00 0.00 0.00 91 1015.5
20260831123025 76 360 0.0 0.0 0.00 0.00 0.00 91 1015.2
20260831121529 76 360 0.0 0.0 0.00 0.00 0.00 90 1014.9
20260831120018 76 360 0.0 0.0 0.00 0.00 0.00 90 1014.8
20260831114521 76 360 0.0 0.0 0.00 0.00 0.00 90 1014.7
20260831113022 76 360 0.0 0.0 0.00 0.00 0.00 90 1014.9
20260831111525 76 360 0.0 0.0 0.00 0.00 0.00 90 1014.8
20260831110013 76 360 0.0 0.0 0.00 0.00 0.00 90 1014.6
20260831104519 76 360 0.0 0.0 0.00 0.00 0.00 90 1014.6
20260831103024 77 360 0.0 0.0 0.00 0.00 0.00 89 1014.6
20260831101509 77 360 0.0 0.0 0.00 0.00 0.00 89 1014.7
20260831100034 77 360 0.0 0.0 0.00 0.00 0.00 89 1014.8
20260831094542 77 360 0.0 0.0 0.00 0.00 0.00 89 1014.8
20260831093026 77 360 0.0 0.0 0.00 0.00 0.00 88 1014.6
20260831091514 77 360 0.0 0.0 0.00 0.00 0.00 88 1014.5
20260831090018 77 360 0.0 0.0 0.00 0.00 0.00 88 1014.5
20260831084527 77 360 0.0 0.0 0.00 0.00 0.00 88 1014.6
20260831083027 77 360 0.0 0.0 0.00 0.00 0.00 88 1014.6
20260831081516 77 360 0.0 0.0 0.00 0.00 0.00 88 1014.7
20260831080019 77 360 0.0 0.0 0.00 0.00 0.00 87 1014.9
20260831074546 78 360 0.0 0.0 0.00 0.00 0.00 87 1014.9
20260831073026 78 360 0.0 0.0 0.00 0.00 0.00 87 1014.9
20260831071531 78 360 0.0 0.0 0.00 0.00 0.00 87 1014.8
20260831070013 78 360 0.0 0.0 0.00 0.00 0.00 86 1015.0
20260831064536 78 360 0.0 0.0 0.00 0.00 0.00 86 1014.9
20260831063044 78 360 0.0 0.0 0.00 0.00 0.00 85 1015.0
20260831061528 79 360 0.0 0.0 0.00 0.00 0.00 85 1015.1
20260831060017 79 360 0.0 0.0 0.00 0.00 0.00 84 1015.0
20260831054522 79 360 0.0 0.0 0.00 0.00 0.00 84 1015.0
20260831053029 79 360 0.0 0.0 0.00 0.00 0.00 83 1015.0
20260831051514 80 360 0.0 0.0 0.00 0.00 0.00 82 1014.9
20260831050016 80 360 0.0 0.0 0.00 0.00 0.00 82 1014.9
20260831044522 80 360 0.0 0.0 0.00 0.00 0.00 82 1014.8
20260831043025 80 360 0.0 4.0 0.00 0.00 0.00 82 1014.7